Time,TemperatureF,DewpointF,PressureIn,WindDirection,WindDirectionDegrees,WindSpeedMPH,WindSpeedGustMPH,Humidity,HourlyPrecipIn,Conditions,Clouds,dailyrainin,SolarRadiationWatts/m^2,SoftwareType,DateUTC
2013-03-14 00:00:00,31.3,24.6,29.75,North,0,0.0,0.0,76,0.00,CLR,,0.00,0.0,WeatherDisplay:10.37,2013-03-14 04:00:00,
2013-03-14 00:01:00,31.2,24.5,29.75,North,0,0.0,0.0,76,0.00,CLR,,0.00,0.0,WeatherDisplay:10.37,2013-03-14 04:01:00,
2013-03-14 00:06:00,31.1,24.4,29.74,North,0,0.0,0.0,76,0.00,CLR,,0.00,0.0,WeatherDisplay:10.37,2013-03-14 04:06:00,
2013-03-14 00:11:00,31.0,24.3,29.74,North,0,0.0,0.0,76,0.00,CLR,,0.00,0.0,WeatherDisplay:10.37,2013-03-14 04:11:00,
2013-03-14 00:16:00,31.0,24.6,29.74,North,0,0.0,0.0,77,0.00,CLR,,0.00,0.0,WeatherDisplay:10.37,2013-03-14 04:16:00,
2013-03-14 00:21:00,30.9,24.5,29.74,North,0,0.0,0.0,77,0.00,CLR,,0.00,0.0,WeatherDisplay:10.37,2013-03-14 04:21:00,
2013-03-14 00:26:00,30.8,24.7,29.74,North,0,0.0,0.0,78,0.00,CLR,,0.00,0.0,WeatherDisplay:10.37,2013-03-14 04:26:00,
2013-03-14 00:32:00,30.7,24.7,29.74,North,0,0.0,0.0,78,0.00,CLR,,0.00,0.0,WeatherDisplay:10.37,2013-03-14 04:32:00,
2013-03-14 00:37:00,30.6,24.2,29.74,North,0,0.0,0.0,77,0.00,CLR,,0.00,0.0,WeatherDisplay:10.37,2013-03-14 04:37:00,
2013-03-14 00:42:00,30.6,24.2,29.74,North,0,0.0,0.0,77,0.00,CLR,,0.00,0.0,WeatherDisplay:10.37,2013-03-14 04:42:00,
2013-03-14 00:47:00,30.6,23.9,29.74,North,0,0.0,0.0,76,0.00,CLR,,0.00,0.0,WeatherDisplay:10.37,2013-03-14 04:47:00,
2013-03-14 00:52:00,30.6,23.9,29.74,North,0,0.0,0.0,76,0.00,CLR,,0.00,0.0,WeatherDisplay:10.37,2013-03-14 04:52:00,
2013-03-14 00:57:00,30.6,24.2,29.74,North,0,0.0,0.0,77,0.00,CLR,,0.00,0.0,WeatherDisplay:10.37,2013-03-14 04:57:00,
2013-03-14 01:02:00,30.7,24.3,29.74,North,0,0.0,0.0,77,0.00,CLR,,0.00,0.0,WeatherDisplay:10.37,2013-03-14 05:02:00,
2013-03-14 01:07:00,30.8,24.4,29.74,North,0,0.0,0.0,77,0.00,CLR,,0.00,0.0,WeatherDisplay:10.37,2013-03-14 05:07:00,
2013-03-14 01:12:00,30.8,24.4,29.74,North,0,0.0,0.0,77,0.00,CLR,,0.00,0.0,WeatherDisplay:10.37,2013-03-14 05:12:00,
2013-03-14 01:17:00,30.8,24.4,29.74,North,0,0.0,0.0,77,0.00,CLR,,0.00,0.0,WeatherDisplay:10.37,2013-03-14 05:17:00,
2013-03-14 01:22:00,30.8,24.4,29.74,North,0,0.0,0.0,77,0.00,CLR,,0.00,0.0,WeatherDisplay:10.37,2013-03-14 05:22:00,
2013-03-14 01:27:00,30.8,24.4,29.74,North,0,0.0,0.0,77,0.00,CLR,,0.00,0.0,WeatherDisplay:10.37,2013-03-14 05:27:00,
2013-03-14 01:32:00,30.8,24.4,29.74,North,0,0.0,0.0,77,0.00,CLR,,0.00,0.0,WeatherDisplay:10.37,2013-03-14 05:32:00,
2013-03-14 01:37:00,30.8,24.4,29.74,North,0,0.0,0.0,77,0.00,CLR,,0.00,0.0,WeatherDisplay:10.37,2013-03-14 05:37:00,
2013-03-14 01:42:00,30.7,24.3,29.74,North,0,0.0,0.0,77,0.00,CLR,,0.00,0.0,WeatherDisplay:10.37,2013-03-14 05:42:00,
2013-03-14 01:47:00,30.6,24.2,29.74,North,0,0.0,0.0,77,0.00,CLR,,0.00,0.0,WeatherDisplay:10.37,2013-03-14 05:47:00,
2013-03-14 01:52:00,30.6,24.6,29.74,North,0,0.0,0.0,78,0.00,CLR,,0.00,0.0,WeatherDisplay:10.37,2013-03-14 05:52:00,
2013-03-14 01:57:00,30.5,24.5,29.74,North,0,0.0,0.0,78,0.00,CLR,,0.00,0.0,WeatherDisplay:10.37,2013-03-14 05:57:00,
2013-03-14 02:02:00,30.5,24.8,29.74,North,0,0.0,0.0,79,0.00,CLR,,0.00,0.0,WeatherDisplay:10.37,2013-03-14 06:02:00,
2013-03-14 02:07:00,30.4,24.7,29.75,North,0,0.0,0.0,79,0.00,CLR,,0.00,0.0,WeatherDisplay:10.37,2013-03-14 06:07:00,
2013-03-14 02:12:00,30.3,24.6,29.75,North,0,0.0,0.0,79,0.00,CLR,,0.00,0.0,WeatherDisplay:10.37,2013-03-14 06:12:00,
2013-03-14 02:17:00,30.3,24.6,29.74,North,0,0.0,0.0,79,0.00,CLR,,0.00,0.0,WeatherDisplay:10.37,2013-03-14 06:17:00,
2013-03-14 02:22:00,30.2,24.5,29.75,North,0,0.0,0.0,79,0.00,CLR,,0.00,0.0,WeatherDisplay:10.37,2013-03-14 06:22:00,
2013-03-14 02:27:00,30.3,24.9,29.74,North,0,0.0,0.0,80,0.00,CLR,,0.00,0.0,WeatherDisplay:10.37,2013-03-14 06:27:00,
2013-03-14 02:33:00,30.3,24.9,29.74,North,0,0.0,0.0,80,0.00,CLR,,0.00,0.0,WeatherDisplay:10.37,2013-03-14 06:33:00,
2013-03-14 02:38:00,30.3,25.2,29.74,North,0,0.0,0.0,81,0.00,CLR,,0.00,0.0,WeatherDisplay:10.37,2013-03-14 06:38:00,
2013-03-14 02:43:00,30.3,25.2,29.74,North,0,0.0,0.0,81,0.00,CLR,,0.00,0.0,WeatherDisplay:10.37,2013-03-14 06:43:00,
2013-03-14 02:48:00,30.3,25.2,29.74,North,0,0.0,0.0,81,0.00,CLR,,0.00,0.0,WeatherDisplay:10.37,2013-03-14 06:48:00,
2013-03-14 02:53:00,30.3,25.2,29.74,North,0,0.0,0.0,81,0.00,CLR,,0.00,0.0,WeatherDisplay:10.37,2013-03-14 06:53:00,
2013-03-14 02:58:00,30.4,25.3,29.74,North,0,0.0,0.0,81,0.00,CLR,,0.00,0.0,WeatherDisplay:10.37,2013-03-14 06:58:00,
2013-03-14 03:03:00,30.4,25.3,29.74,North,0,0.0,0.0,81,0.00,CLR,,0.00,0.0,WeatherDisplay:10.37,2013-03-14 07:03:00,
2013-03-14 03:08:00,30.5,25.4,29.74,North,0,0.0,0.0,81,0.00,CLR,,0.00,0.0,WeatherDisplay:10.37,2013-03-14 07:08:00,
2013-03-14 03:13:00,30.6,25.5,29.74,North,0,0.0,0.0,81,0.00,CLR,,0.00,0.0,WeatherDisplay:10.37,2013-03-14 07:13:00,
2013-03-14 03:18:00,30.6,25.5,29.74,North,0,0.0,0.0,81,0.00,CLR,,0.00,0.0,WeatherDisplay:10.37,2013-03-14 07:18:00,
2013-03-14 03:23:00,30.6,25.2,29.74,North,0,0.0,0.0,80,0.00,CLR,,0.00,0.0,WeatherDisplay:10.37,2013-03-14 07:23:00,
2013-03-14 03:28:00,30.6,25.2,29.73,North,0,0.0,0.0,80,0.00,CLR,,0.00,0.0,WeatherDisplay:10.37,2013-03-14 07:28:00,
2013-03-14 03:33:00,30.7,25.0,29.73,North,0,0.0,0.0,79,0.00,CLR,,0.00,0.0,WeatherDisplay:10.37,2013-03-14 07:33:00,
2013-03-14 03:38:00,30.7,25.0,29.73,North,0,0.0,0.0,79,0.00,CLR,,0.00,0.0,WeatherDisplay:10.37,2013-03-14 07:38:00,
2013-03-14 03:43:00,30.7,25.0,29.73,North,0,0.0,0.0,79,0.00,CLR,,0.00,0.0,WeatherDisplay:10.37,2013-03-14 07:43:00,
2013-03-14 03:48:00,30.7,24.7,29.73,North,0,0.0,0.0,78,0.00,CLR,,0.00,0.0,WeatherDisplay:10.37,2013-03-14 07:48:00,
2013-03-14 03:53:00,30.7,24.7,29.73,North,0,0.0,0.0,78,0.00,CLR,,0.00,0.0,WeatherDisplay:10.37,2013-03-14 07:53:00,
2013-03-14 03:58:00,30.6,24.6,29.73,North,0,0.0,0.0,78,0.00,CLR,,0.00,0.0,WeatherDisplay:10.37,2013-03-14 07:58:00,
2013-03-14 04:03:00,30.6,24.6,29.72,North,0,0.0,0.0,78,0.00,CLR,,0.00,0.0,WeatherDisplay:10.37,2013-03-14 08:03:00,
2013-03-14 04:08:00,30.5,24.1,29.72,North,0,0.0,0.0,77,0.00,CLR,,0.00,0.0,WeatherDisplay:10.37,2013-03-14 08:08:00,
2013-03-14 04:13:00,30.5,24.5,29.72,North,0,0.0,0.0,78,0.00,CLR,,0.00,0.0,WeatherDisplay:10.37,2013-03-14 08:13:00,
2013-03-14 04:18:00,30.4,24.4,29.73,North,0,0.0,0.0,78,0.00,CLR,,0.00,0.0,WeatherDisplay:10.37,2013-03-14 08:18:00,
2013-03-14 04:23:00,30.3,24.0,29.72,North,0,0.0,0.0,77,0.00,CLR,,0.00,0.0,WeatherDisplay:10.37,2013-03-14 08:23:00,
2013-03-14 04:28:00,30.2,24.2,29.73,North,0,0.0,0.0,78,0.00,CLR,,0.00,0.0,WeatherDisplay:10.37,2013-03-14 08:28:00,
2013-03-14 04:33:00,30.1,24.1,29.73,North,0,0.0,0.0,78,0.00,CLR,,0.00,0.0,WeatherDisplay:10.37,2013-03-14 08:33:00,
2013-03-14 04:38:00,30.0,24.0,29.73,North,0,0.0,0.0,78,0.00,CLR,,0.00,0.0,WeatherDisplay:10.37,2013-03-14 08:38:00,
2013-03-14 04:43:00,29.9,23.9,29.73,North,0,0.0,0.0,78,0.00,CLR,,0.00,0.0,WeatherDisplay:10.37,2013-03-14 08:43:00,
2013-03-14 04:48:00,29.8,24.1,29.72,North,0,0.0,0.0,79,0.00,CLR,,0.00,0.0,WeatherDisplay:10.37,2013-03-14 08:48:00,
2013-03-14 04:53:00,29.7,24.0,29.72,North,0,0.0,0.0,79,0.00,CLR,,0.00,0.0,WeatherDisplay:10.37,2013-03-14 08:53:00,
2013-03-14 04:58:00,29.6,23.9,29.72,North,0,0.0,0.0,79,0.00,CLR,,0.00,0.0,WeatherDisplay:10.37,2013-03-14 08:58:00,
2013-03-14 05:03:00,29.5,23.8,29.73,North,0,0.0,0.0,79,0.00,CLR,,0.00,0.0,WeatherDisplay:10.37,2013-03-14 09:03:00,
2013-03-14 05:08:00,29.3,23.6,29.73,North,0,0.0,0.0,79,0.00,CLR,,0.00,0.0,WeatherDisplay:10.37,2013-03-14 09:08:00,
2013-03-14 05:13:00,29.3,23.3,29.73,North,0,0.0,0.0,78,0.00,CLR,,0.00,0.0,WeatherDisplay:10.37,2013-03-14 09:13:00,
2013-03-14 05:18:00,29.2,23.2,29.73,North,0,0.0,0.0,78,0.00,CLR,,0.00,0.0,WeatherDisplay:10.37,2013-03-14 09:18:00,
2013-03-14 05:23:00,29.3,23.0,29.73,North,0,0.0,0.0,77,0.00,CLR,,0.00,0.0,WeatherDisplay:10.37,2013-03-14 09:23:00,
2013-03-14 05:28:00,29.4,23.1,29.73,North,0,0.0,0.0,77,0.00,CLR,,0.00,0.0,WeatherDisplay:10.37,2013-03-14 09:28:00,
2013-03-14 05:33:00,29.4,23.1,29.73,North,0,0.0,0.0,77,0.00,CLR,,0.00,0.0,WeatherDisplay:10.37,2013-03-14 09:33:00,
2013-03-14 05:38:00,29.4,23.1,29.74,North,0,0.0,0.0,77,0.00,CLR,,0.00,0.0,WeatherDisplay:10.37,2013-03-14 09:38:00,
2013-03-14 05:43:00,29.4,22.8,29.74,North,0,0.0,0.0,76,0.00,CLR,,0.00,0.0,WeatherDisplay:10.37,2013-03-14 09:43:00,
2013-03-14 05:48:00,29.5,22.9,29.74,North,0,0.0,0.0,76,0.00,CLR,,0.00,0.0,WeatherDisplay:10.37,2013-03-14 09:48:00,
2013-03-14 05:53:00,29.6,23.0,29.74,North,0,0.0,0.0,76,0.00,CLR,,0.00,0.0,WeatherDisplay:10.37,2013-03-14 09:53:00,
2013-03-14 05:58:00,29.6,23.0,29.74,North,0,0.0,0.0,76,0.00,CLR,,0.00,0.0,WeatherDisplay:10.37,2013-03-14 09:58:00,
2013-03-14 06:03:00,29.7,23.1,29.74,North,0,0.0,0.0,76,0.00,CLR,,0.00,0.0,WeatherDisplay:10.37,2013-03-14 10:03:00,
2013-03-14 06:08:00,29.9,23.3,29.74,North,0,0.0,0.0,76,0.00,CLR,,0.00,0.0,WeatherDisplay:10.37,2013-03-14 10:08:00,
2013-03-14 06:13:00,30.1,23.4,29.74,North,0,0.0,0.0,76,0.00,CLR,,0.00,0.0,WeatherDisplay:10.37,2013-03-14 10:13:00,
2013-03-14 06:18:00,30.3,22.7,29.74,North,0,0.0,0.0,73,0.00,CLR,,0.00,0.0,WeatherDisplay:10.37,2013-03-14 10:18:00,
2013-03-14 06:23:00,30.4,22.4,29.74,North,0,0.0,0.0,72,0.00,CLR,,0.00,0.0,WeatherDisplay:10.37,2013-03-14 10:23:00,
2013-03-14 06:28:00,30.6,22.0,29.74,North,0,0.0,0.0,70,0.00,CLR,,0.00,0.0,WeatherDisplay:10.37,2013-03-14 10:28:00,
2013-03-14 06:33:00,30.6,21.6,29.74,North,0,0.0,0.0,69,0.00,OVC,,0.00,0.0,WeatherDisplay:10.37,2013-03-14 10:33:00,
2013-03-14 06:38:00,30.7,21.4,29.74,North,0,0.0,0.0,68,0.00,OVC,,0.00,0.0,WeatherDisplay:10.37,2013-03-14 10:38:00,
2013-03-14 06:43:00,30.7,21.4,29.74,North,0,0.0,0.0,68,0.00,OVC,,0.00,0.0,WeatherDisplay:10.37,2013-03-14 10:43:00,
2013-03-14 06:48:00,30.6,21.3,29.74,North,0,0.0,0.0,68,0.00,OVC,,0.00,0.0,WeatherDisplay:10.37,2013-03-14 10:48:00,
2013-03-14 06:53:00,30.6,21.3,29.74,North,0,0.0,0.0,68,0.00,OVC,,0.00,0.0,WeatherDisplay:10.37,2013-03-14 10:53:00,
2013-03-14 06:58:00,30.5,21.2,29.74,North,0,0.0,0.0,68,0.00,OVC,,0.00,0.0,WeatherDisplay:10.37,2013-03-14 10:58:00,
2013-03-14 07:03:00,30.4,21.1,29.75,North,0,0.0,0.0,68,0.00,OVC,,0.00,0.0,WeatherDisplay:10.37,2013-03-14 11:03:00,
2013-03-14 07:08:00,30.4,21.1,29.74,North,0,0.0,0.0,68,0.00,CLR,,0.00,7.0,WeatherDisplay:10.37,2013-03-14 11:08:00,
2013-03-14 07:13:00,30.3,21.0,29.74,North,0,0.0,0.0,68,0.00,SCT,,0.00,11.0,WeatherDisplay:10.37,2013-03-14 11:13:00,
2013-03-14 07:18:00,30.3,21.3,29.74,North,0,0.0,0.0,69,0.00,SCT,,0.00,14.0,WeatherDisplay:10.37,2013-03-14 11:18:00,
2013-03-14 07:23:00,30.3,21.0,29.74,North,0,0.0,0.0,68,0.00,BKN,,0.00,16.0,WeatherDisplay:10.37,2013-03-14 11:23:00,
2013-03-14 07:28:00,30.2,21.2,29.75,North,0,0.0,0.0,69,0.00,BKN,,0.00,19.0,WeatherDisplay:10.37,2013-03-14 11:28:00,
2013-03-14 07:33:00,30.2,20.9,29.75,North,0,0.0,0.0,68,0.00,BKN,,0.00,26.0,WeatherDisplay:10.37,2013-03-14 11:33:00,
2013-03-14 07:38:00,30.2,20.9,29.75,North,0,0.0,0.0,68,0.00,BKN,,0.00,25.0,WeatherDisplay:10.37,2013-03-14 11:38:00,
2013-03-14 07:43:00,30.3,20.6,29.74,North,0,0.0,0.0,67,0.00,BKN,,0.00,26.0,WeatherDisplay:10.37,2013-03-14 11:43:00,
2013-03-14 07:48:00,30.3,20.3,29.75,North,0,0.0,0.0,66,0.00,BKN,,0.00,32.0,WeatherDisplay:10.37,2013-03-14 11:48:00,
2013-03-14 07:53:00,30.4,20.4,29.75,North,0,0.0,0.0,66,0.00,BKN,,0.00,33.0,WeatherDisplay:10.37,2013-03-14 11:53:00,
2013-03-14 07:58:00,30.5,20.1,29.75,North,0,0.0,0.0,65,0.00,BKN,,0.00,37.0,WeatherDisplay:10.37,2013-03-14 11:58:00,
2013-03-14 08:03:00,30.5,19.8,29.75,North,0,0.0,0.0,64,0.00,BKN,,0.00,42.0,WeatherDisplay:10.37,2013-03-14 12:03:00,
2013-03-14 08:08:00,30.6,19.5,29.75,North,0,0.0,0.0,63,0.00,BKN,,0.00,47.0,WeatherDisplay:10.37,2013-03-14 12:08:00,
2013-03-14 08:13:00,30.6,19.5,29.75,North,0,0.0,0.0,63,0.00,BKN,,0.00,56.0,WeatherDisplay:10.37,2013-03-14 12:13:00,
2013-03-14 08:18:00,30.7,19.6,29.75,North,0,0.0,0.0,63,0.00,BKN,,0.00,56.0,WeatherDisplay:10.37,2013-03-14 12:18:00,
2013-03-14 08:23:00,30.7,19.6,29.75,North,0,0.0,0.0,63,0.00,BKN,,0.00,54.0,WeatherDisplay:10.37,2013-03-14 12:23:00,
2013-03-14 08:28:00,30.8,19.7,29.75,North,0,0.0,0.0,63,0.00,BKN,,0.00,63.0,WeatherDisplay:10.37,2013-03-14 12:28:00,
2013-03-14 08:33:00,30.9,19.8,29.75,North,0,0.0,0.0,63,0.00,BKN,,0.00,74.0,WeatherDisplay:10.37,2013-03-14 12:33:00,
2013-03-14 08:38:00,30.9,19.4,29.75,North,0,0.0,0.0,62,0.00,BKN,,0.00,81.0,WeatherDisplay:10.37,2013-03-14 12:38:00,
2013-03-14 08:43:00,30.9,19.4,29.75,North,0,0.0,0.0,62,0.00,BKN,,0.00,84.0,WeatherDisplay:10.37,2013-03-14 12:43:00,
2013-03-14 08:48:00,31.0,19.5,29.75,North,0,0.0,0.0,62,0.00,BKN,,0.00,84.0,WeatherDisplay:10.37,2013-03-14 12:48:00,
2013-03-14 08:53:00,31.1,19.6,29.75,North,0,0.0,0.0,62,0.00,BKN,,0.00,97.0,WeatherDisplay:10.37,2013-03-14 12:53:00,
2013-03-14 08:58:00,31.2,19.7,29.75,North,0,0.0,0.0,62,0.00,BKN,,0.00,107.0,WeatherDisplay:10.37,2013-03-14 12:58:00,
2013-03-14 09:03:00,31.2,19.7,29.75,North,0,0.0,0.0,62,0.00,BKN,,0.00,111.0,WeatherDisplay:10.37,2013-03-14 13:03:00,
2013-03-14 09:08:00,31.3,19.4,29.76,North,0,0.0,0.0,61,0.00,BKN,,0.00,120.0,WeatherDisplay:10.37,2013-03-14 13:08:00,
2013-03-14 09:13:00,31.3,19.4,29.76,North,0,0.0,0.0,61,0.00,BKN,,0.00,125.0,WeatherDisplay:10.37,2013-03-14 13:13:00,
2013-03-14 09:18:00,31.4,19.5,29.76,North,0,0.0,0.0,61,0.00,BKN,,0.00,149.0,WeatherDisplay:10.37,2013-03-14 13:18:00,
2013-03-14 09:23:00,31.5,19.6,29.76,North,0,0.0,0.0,61,0.00,BKN,,0.00,153.0,WeatherDisplay:10.37,2013-03-14 13:23:00,
2013-03-14 09:28:00,31.6,19.7,29.75,North,0,0.0,0.0,61,0.00,BKN,,0.00,181.0,WeatherDisplay:10.37,2013-03-14 13:28:00,
2013-03-14 09:33:00,31.8,20.3,29.75,North,0,0.0,0.0,62,0.00,BKN,,0.00,172.0,WeatherDisplay:10.37,2013-03-14 13:33:00,
2013-03-14 09:38:00,31.9,20.3,29.75,North,0,0.0,0.0,62,0.00,BKN,,0.00,181.0,WeatherDisplay:10.37,2013-03-14 13:38:00,
2013-03-14 09:43:00,32.1,20.2,29.75,North,0,0.0,0.0,61,0.00,BKN,,0.00,158.0,WeatherDisplay:10.37,2013-03-14 13:43:00,
2013-03-14 09:48:00,32.2,20.2,29.75,North,0,0.0,0.0,61,0.00,BKN,,0.00,155.0,WeatherDisplay:10.37,2013-03-14 13:48:00,
2013-03-14 09:53:00,32.4,20.0,29.75,North,0,0.0,0.0,60,0.00,SCT,,0.00,169.0,WeatherDisplay:10.37,2013-03-14 13:53:00,
2013-03-14 09:58:00,32.5,20.1,29.75,North,0,0.0,0.0,60,0.00,BKN,,0.00,207.0,WeatherDisplay:10.37,2013-03-14 13:58:00,
2013-03-14 10:03:00,32.6,20.2,29.75,North,0,0.0,0.0,60,0.00,BKN,,0.00,267.0,WeatherDisplay:10.37,2013-03-14 14:03:00,
2013-03-14 10:08:00,32.7,20.3,29.75,North,0,0.0,0.0,60,0.00,BKN,,0.00,209.0,WeatherDisplay:10.37,2013-03-14 14:08:00,
2013-03-14 10:13:00,32.9,20.9,29.75,North,0,0.0,0.0,61,0.00,BKN,,0.00,172.0,WeatherDisplay:10.37,2013-03-14 14:13:00,
2013-03-14 10:18:00,32.9,20.5,29.75,North,0,0.0,0.0,60,0.00,BKN,,0.00,128.0,WeatherDisplay:10.37,2013-03-14 14:18:00,
2013-03-14 10:23:00,32.8,20.0,29.75,North,0,0.0,0.0,59,0.00,BKN,,0.00,141.0,WeatherDisplay:10.37,2013-03-14 14:23:00,
2013-03-14 10:28:00,32.7,20.3,29.75,North,0,0.0,0.0,60,0.00,BKN,,0.00,128.0,WeatherDisplay:10.37,2013-03-14 14:28:00,
2013-03-14 10:33:00,32.6,19.8,29.75,North,0,0.0,0.0,59,0.00,BKN,,0.00,118.0,WeatherDisplay:10.37,2013-03-14 14:33:00,
2013-03-14 10:38:00,32.5,19.3,29.75,North,0,0.0,0.0,58,0.00,BKN,,0.00,768.0,WeatherDisplay:10.37,2013-03-14 14:38:00,
2013-03-14 10:43:00,34.0,21.2,29.75,North,0,0.0,0.0,59,0.00,CLR,,0.00,710.0,WeatherDisplay:10.37,2013-03-14 14:43:00,
2013-03-14 10:48:00,34.6,20.5,29.74,North,0,0.0,0.0,56,0.00,FEW,,0.00,202.0,WeatherDisplay:10.37,2013-03-14 14:48:00,
2013-03-14 10:53:00,34.6,19.6,29.74,North,0,0.0,0.0,54,0.00,BKN,,0.00,199.0,WeatherDisplay:10.37,2013-03-14 14:53:00,
2013-03-14 10:58:00,34.2,18.8,29.74,North,0,0.0,0.0,53,0.00,BKN,,0.00,220.0,WeatherDisplay:10.37,2013-03-14 14:58:00,
2013-03-14 11:03:00,33.8,18.0,29.75,North,0,0.0,0.0,52,0.00,BKN,,0.00,251.0,WeatherDisplay:10.37,2013-03-14 15:03:00,
2013-03-14 11:08:00,33.9,19.0,29.74,North,0,0.0,0.0,54,0.00,BKN,,0.00,269.0,WeatherDisplay:10.37,2013-03-14 15:08:00,
2013-03-14 11:13:00,33.9,18.1,29.74,North,0,0.0,0.0,52,0.00,BKN,,0.00,234.0,WeatherDisplay:10.37,2013-03-14 15:13:00,
2013-03-14 11:18:00,33.7,18.4,29.74,North,0,0.0,0.0,53,0.00,BKN,,0.00,221.0,WeatherDisplay:10.37,2013-03-14 15:18:00,
2013-03-14 11:23:00,33.5,17.7,29.74,North,0,0.0,0.0,52,0.00,BKN,,0.00,167.0,WeatherDisplay:10.37,2013-03-14 15:23:00,
2013-03-14 11:28:00,33.2,18.3,29.74,North,0,0.0,0.0,54,0.00,BKN,,0.00,156.0,WeatherDisplay:10.37,2013-03-14 15:28:00,
2013-03-14 11:33:00,33.0,18.6,29.74,North,0,0.0,0.0,55,0.00,BKN,,0.00,171.0,WeatherDisplay:10.37,2013-03-14 15:33:00,
2013-03-14 11:39:00,32.9,18.5,29.74,North,0,0.0,0.0,55,0.00,BKN,,0.00,214.0,WeatherDisplay:10.37,2013-03-14 15:39:00,
2013-03-14 11:44:00,32.9,18.5,29.74,North,0,0.0,0.0,55,0.00,BKN,,0.00,220.0,WeatherDisplay:10.37,2013-03-14 15:44:00,
2013-03-14 11:49:00,32.9,17.6,29.74,North,0,0.0,0.0,53,0.00,BKN,,0.00,193.0,WeatherDisplay:10.37,2013-03-14 15:49:00,
2013-03-14 11:54:00,32.7,17.4,29.73,North,0,0.0,0.0,53,0.00,BKN,,0.00,197.0,WeatherDisplay:10.37,2013-03-14 15:54:00,
2013-03-14 11:59:00,33.1,19.1,29.73,North,0,0.0,0.0,56,0.00,BKN,,0.00,802.0,WeatherDisplay:10.37,2013-03-14 15:59:00,
2013-03-14 12:04:00,34.4,19.0,29.72,North,0,0.0,0.0,53,0.00,CLR,,0.00,951.0,WeatherDisplay:10.37,2013-03-14 16:04:00,
2013-03-14 12:09:00,35.8,18.5,29.73,North,0,0.0,0.0,49,0.00,FEW,,0.00,257.0,WeatherDisplay:10.37,2013-03-14 16:09:00,
2013-03-14 12:14:00,35.2,18.9,29.72,North,0,0.0,0.0,51,0.00,BKN,,0.00,302.0,WeatherDisplay:10.37,2013-03-14 16:14:00,
2013-03-14 12:19:00,34.8,18.5,29.72,North,0,0.0,0.0,51,0.00,BKN,,0.00,311.0,WeatherDisplay:10.37,2013-03-14 16:19:00,
2013-03-14 12:24:00,34.8,20.3,29.72,North,0,0.0,0.0,55,0.00,BKN,,0.00,274.0,WeatherDisplay:10.37,2013-03-14 16:24:00,
2013-03-14 12:29:00,34.8,18.5,29.73,North,0,0.0,0.0,51,0.00,BKN,,0.00,202.0,WeatherDisplay:10.37,2013-03-14 16:29:00,
2013-03-14 12:34:00,34.5,18.2,29.73,North,0,0.0,0.0,51,0.00,BKN,,0.00,227.0,WeatherDisplay:10.37,2013-03-14 16:34:00,
2013-03-14 12:39:00,34.0,16.8,29.72,North,0,0.0,0.0,49,0.00,BKN,,0.00,772.0,WeatherDisplay:10.37,2013-03-14 16:39:00,
2013-03-14 12:44:00,35.2,18.9,29.72,North,0,0.0,0.0,51,0.00,FEW,,0.00,483.0,WeatherDisplay:10.37,2013-03-14 16:44:00,
2013-03-14 12:49:00,34.4,17.2,29.72,North,0,0.0,0.0,49,0.00,SCT,,0.00,497.0,WeatherDisplay:10.37,2013-03-14 16:49:00,
2013-03-14 12:54:00,33.9,16.7,29.72,North,0,0.0,0.0,49,0.00,FEW,,0.00,707.0,WeatherDisplay:10.37,2013-03-14 16:54:00,
2013-03-14 12:59:00,34.4,16.7,29.72,North,0,0.0,0.0,48,0.00,FEW,,0.00,355.0,WeatherDisplay:10.37,2013-03-14 16:59:00,
2013-03-14 13:04:00,34.4,16.2,29.72,North,0,0.0,0.0,47,0.00,BKN,,0.00,380.0,WeatherDisplay:10.37,2013-03-14 17:04:00,
2013-03-14 13:09:00,34.1,15.9,29.72,North,0,0.0,0.0,47,0.00,BKN,,0.00,251.0,WeatherDisplay:10.37,2013-03-14 17:09:00,
2013-03-14 13:14:00,34.1,16.4,29.72,North,0,0.0,0.0,48,0.00,BKN,,0.00,267.0,WeatherDisplay:10.37,2013-03-14 17:14:00,
2013-03-14 13:19:00,34.0,16.8,29.72,North,0,0.0,0.0,49,0.00,BKN,,0.00,258.0,WeatherDisplay:10.37,2013-03-14 17:19:00,
2013-03-14 13:24:00,33.8,16.6,29.71,North,0,0.0,0.0,49,0.00,BKN,,0.00,271.0,WeatherDisplay:10.37,2013-03-14 17:24:00,
2013-03-14 13:29:00,33.6,16.0,29.71,North,0,0.0,0.0,48,0.00,BKN,,0.00,257.0,WeatherDisplay:10.37,2013-03-14 17:29:00,
2013-03-14 13:34:00,33.4,15.8,29.71,North,0,0.0,0.0,48,0.00,BKN,,0.00,299.0,WeatherDisplay:10.37,2013-03-14 17:34:00,
2013-03-14 13:39:00,33.3,16.2,29.71,North,0,0.0,0.0,49,0.00,BKN,,0.00,244.0,WeatherDisplay:10.37,2013-03-14 17:39:00,
2013-03-14 13:44:00,33.2,16.5,29.71,North,0,0.0,0.0,50,0.00,BKN,,0.00,265.0,WeatherDisplay:10.37,2013-03-14 17:44:00,
2013-03-14 13:49:00,33.3,17.1,29.71,North,0,0.0,0.0,51,0.00,BKN,,0.00,283.0,WeatherDisplay:10.37,2013-03-14 17:49:00,
2013-03-14 13:54:00,33.1,16.5,29.71,North,0,0.0,0.0,50,0.00,BKN,,0.00,262.0,WeatherDisplay:10.37,2013-03-14 17:54:00,
2013-03-14 13:59:00,33.1,16.5,29.70,North,0,0.0,0.0,50,0.00,BKN,,0.00,330.0,WeatherDisplay:10.37,2013-03-14 17:59:00,
2013-03-14 14:04:00,33.2,16.1,29.70,North,0,0.0,0.0,49,0.00,SCT,,0.00,742.0,WeatherDisplay:10.37,2013-03-14 18:04:00,
2013-03-14 14:09:00,35.1,19.2,29.70,North,0,0.0,0.0,52,0.00,CLR,,0.00,267.0,WeatherDisplay:10.37,2013-03-14 18:09:00,
2013-03-14 14:14:00,34.8,17.1,29.69,North,0,0.0,0.0,48,0.00,BKN,,0.00,364.0,WeatherDisplay:10.37,2013-03-14 18:14:00,
2013-03-14 14:19:00,35.1,17.8,29.69,North,0,0.0,0.0,49,0.00,FEW,,0.00,729.0,WeatherDisplay:10.37,2013-03-14 18:19:00,
2013-03-14 14:24:00,35.0,16.8,29.70,North,0,0.0,0.0,47,0.00,FEW,,0.00,805.0,WeatherDisplay:10.37,2013-03-14 18:24:00,
2013-03-14 14:29:00,35.8,18.0,29.69,North,0,0.0,0.0,48,0.00,CLR,,0.00,726.0,WeatherDisplay:10.37,2013-03-14 18:29:00,
2013-03-14 14:34:00,35.9,17.6,29.69,North,0,0.0,0.0,47,0.00,CLR,,0.00,821.0,WeatherDisplay:10.37,2013-03-14 18:34:00,
2013-03-14 14:39:00,36.3,17.5,29.69,North,0,0.0,0.0,46,0.00,FEW,,0.00,241.0,WeatherDisplay:10.37,2013-03-14 18:39:00,
2013-03-14 14:44:00,35.4,16.6,29.70,North,0,0.0,0.0,46,0.00,SCT,,0.00,323.0,WeatherDisplay:10.37,2013-03-14 18:44:00,
2013-03-14 14:49:00,34.9,16.7,29.69,North,0,0.0,0.0,47,0.00,BKN,,0.00,288.0,WeatherDisplay:10.37,2013-03-14 18:49:00,
2013-03-14 14:54:00,34.4,17.2,29.69,North,0,0.0,0.0,49,0.00,BKN,,0.00,279.0,WeatherDisplay:10.37,2013-03-14 18:54:00,
2013-03-14 14:59:00,34.4,16.2,29.69,North,0,0.0,0.0,47,0.00,BKN,,0.00,227.0,WeatherDisplay:10.37,2013-03-14 18:59:00,
2013-03-14 15:04:00,33.9,15.3,29.69,North,0,0.0,0.0,46,0.00,SCT,,0.00,476.0,WeatherDisplay:10.37,2013-03-14 19:04:00,
2013-03-14 15:09:00,33.5,15.4,29.69,North,0,0.0,0.0,47,0.00,FEW,,0.00,543.0,WeatherDisplay:10.37,2013-03-14 19:09:00,
2013-03-14 15:14:00,33.9,16.3,29.68,North,0,0.0,0.0,48,0.00,SCT,,0.00,294.0,WeatherDisplay:10.37,2013-03-14 19:14:00,
2013-03-14 15:19:00,34.0,16.8,29.69,North,0,0.0,0.0,49,0.00,SCT,,0.00,262.0,WeatherDisplay:10.37,2013-03-14 19:19:00,
2013-03-14 15:24:00,33.9,16.3,29.69,North,0,0.0,0.0,48,0.00,BKN,,0.00,216.0,WeatherDisplay:10.37,2013-03-14 19:24:00,
2013-03-14 15:29:00,33.6,15.5,29.70,North,0,0.0,0.0,47,0.00,BKN,,0.00,176.0,WeatherDisplay:10.37,2013-03-14 19:29:00,
2013-03-14 15:34:00,33.3,15.7,29.70,North,0,0.0,0.0,48,0.00,BKN,,0.00,162.0,WeatherDisplay:10.37,2013-03-14 19:34:00,
2013-03-14 15:39:00,33.1,16.0,29.69,North,0,0.0,0.0,49,0.00,BKN,,0.00,163.0,WeatherDisplay:10.37,2013-03-14 19:39:00,
2013-03-14 15:44:00,32.8,15.2,29.70,North,0,0.0,0.0,48,0.00,BKN,,0.00,160.0,WeatherDisplay:10.37,2013-03-14 19:44:00,
2013-03-14 15:49:00,32.5,15.0,29.70,North,0,0.0,0.0,48,0.00,BKN,,0.00,178.0,WeatherDisplay:10.37,2013-03-14 19:49:00,
2013-03-14 15:54:00,32.3,15.3,29.70,North,0,0.0,0.0,49,0.00,BKN,,0.00,179.0,WeatherDisplay:10.37,2013-03-14 19:54:00,
2013-03-14 15:59:00,32.1,15.5,29.70,North,0,0.0,0.0,50,0.00,BKN,,0.00,174.0,WeatherDisplay:10.37,2013-03-14 19:59:00,
2013-03-14 16:04:00,31.9,15.3,29.70,North,0,0.0,0.0,50,0.00,BKN,,0.00,209.0,WeatherDisplay:10.37,2013-03-14 20:04:00,
2013-03-14 16:09:00,31.7,15.6,29.70,North,0,0.0,0.0,51,0.00,BKN,,0.00,204.0,WeatherDisplay:10.37,2013-03-14 20:09:00,
2013-03-14 16:14:00,31.7,15.6,29.70,North,0,0.0,0.0,51,0.00,BKN,,0.00,158.0,WeatherDisplay:10.37,2013-03-14 20:14:00,
2013-03-14 16:19:00,31.5,15.9,29.70,North,0,0.0,0.0,52,0.00,BKN,,0.00,97.0,WeatherDisplay:10.37,2013-03-14 20:19:00,
2013-03-14 16:24:00,31.4,15.8,29.70,North,0,0.0,0.0,52,0.00,BKN,,0.00,93.0,WeatherDisplay:10.37,2013-03-14 20:24:00,
2013-03-14 16:29:00,31.2,16.0,29.71,North,0,0.0,0.0,53,0.00,BKN,,0.00,107.0,WeatherDisplay:10.37,2013-03-14 20:29:00,
2013-03-14 16:34:00,30.9,14.9,29.71,North,0,0.0,0.0,51,0.00,BKN,,0.00,111.0,WeatherDisplay:10.37,2013-03-14 20:34:00,
2013-03-14 16:39:00,30.6,14.6,29.71,North,0,0.0,0.0,51,0.00,BKN,,0.00,105.0,WeatherDisplay:10.37,2013-03-14 20:39:00,
2013-03-14 16:44:00,30.4,14.9,29.71,North,0,0.0,0.0,52,0.00,BKN,,0.00,104.0,WeatherDisplay:10.37,2013-03-14 20:44:00,
2013-03-14 16:49:00,30.3,14.8,29.71,North,0,0.0,0.0,52,0.00,BKN,,0.00,104.0,WeatherDisplay:10.37,2013-03-14 20:49:00,
2013-03-14 16:54:00,30.2,15.1,29.71,North,0,0.0,0.0,53,0.00,BKN,,0.00,116.0,WeatherDisplay:10.37,2013-03-14 20:54:00,
2013-03-14 16:59:00,29.9,14.4,29.71,North,0,0.0,0.0,52,0.00,BKN,,0.00,105.0,WeatherDisplay:10.37,2013-03-14 20:59:00,
2013-03-14 17:04:00,29.7,14.2,29.72,North,0,0.0,0.0,52,0.00,BKN,,0.00,104.0,WeatherDisplay:10.37,2013-03-14 21:04:00,
2013-03-14 17:09:00,29.6,15.0,29.73,North,0,0.0,0.0,54,0.00,BKN,,0.00,91.0,WeatherDisplay:10.37,2013-03-14 21:09:00,
2013-03-14 17:14:00,29.4,14.4,29.72,North,0,0.0,0.0,53,0.00,BKN,,0.00,72.0,WeatherDisplay:10.37,2013-03-14 21:14:00,
2013-03-14 17:19:00,29.2,14.2,29.73,North,0,0.0,0.0,53,0.00,BKN,,0.00,86.0,WeatherDisplay:10.37,2013-03-14 21:19:00,
2013-03-14 17:24:00,29.0,14.0,29.73,North,0,0.0,0.0,53,0.00,BKN,,0.00,79.0,WeatherDisplay:10.37,2013-03-14 21:24:00,
2013-03-14 17:29:00,28.7,14.1,29.73,North,0,0.0,0.0,54,0.00,BKN,,0.00,76.0,WeatherDisplay:10.37,2013-03-14 21:29:00,
2013-03-14 17:34:00,28.6,13.6,29.73,North,0,0.0,0.0,53,0.00,BKN,,0.00,63.0,WeatherDisplay:10.37,2013-03-14 21:34:00,
2013-03-14 17:39:00,28.3,13.8,29.73,North,0,0.0,0.0,54,0.00,BKN,,0.00,53.0,WeatherDisplay:10.37,2013-03-14 21:39:00,
2013-03-14 17:44:00,28.1,13.1,29.73,North,0,0.0,0.0,53,0.00,BKN,,0.00,42.0,WeatherDisplay:10.37,2013-03-14 21:44:00,
2013-03-14 17:49:00,27.9,13.4,29.74,North,0,0.0,0.0,54,0.00,BKN,,0.00,37.0,WeatherDisplay:10.37,2013-03-14 21:49:00,
2013-03-14 17:54:00,27.7,13.6,29.74,North,0,0.0,0.0,55,0.00,BKN,,0.00,37.0,WeatherDisplay:10.37,2013-03-14 21:54:00,
2013-03-14 17:59:00,27.6,13.1,29.74,North,0,0.0,0.0,54,0.00,BKN,,0.00,40.0,WeatherDisplay:10.37,2013-03-14 21:59:00,
2013-03-14 18:04:00,27.4,12.9,29.74,North,0,0.0,0.0,54,0.00,BKN,,0.00,39.0,WeatherDisplay:10.37,2013-03-14 22:04:00,
2013-03-14 18:09:00,27.2,12.7,29.74,North,0,0.0,0.0,54,0.00,BKN,,0.00,33.0,WeatherDisplay:10.37,2013-03-14 22:09:00,
2013-03-14 18:14:00,27.1,12.6,29.74,North,0,0.0,0.0,54,0.00,BKN,,0.00,25.0,WeatherDisplay:10.37,2013-03-14 22:14:00,
2013-03-14 18:19:00,26.9,12.9,29.74,North,0,0.0,0.0,55,0.00,BKN,,0.00,16.0,WeatherDisplay:10.37,2013-03-14 22:19:00,
2013-03-14 18:24:00,26.8,12.4,29.75,North,0,0.0,0.0,54,0.00,BKN,,0.00,11.0,WeatherDisplay:10.37,2013-03-14 22:24:00,
2013-03-14 18:29:00,26.7,12.7,29.75,North,0,0.0,0.0,55,0.00,BKN,,0.00,7.0,WeatherDisplay:10.37,2013-03-14 22:29:00,
2013-03-14 18:34:00,26.6,13.0,29.75,North,0,0.0,0.0,56,0.00,BKN,,0.00,5.0,WeatherDisplay:10.37,2013-03-14 22:34:00,
2013-03-14 18:39:00,26.5,12.5,29.76,North,0,0.0,0.0,55,0.00,BKN,,0.00,5.0,WeatherDisplay:10.37,2013-03-14 22:39:00,
2013-03-14 18:44:00,26.4,14.0,29.76,North,0,0.0,0.0,59,0.00,OVC,,0.00,0.0,WeatherDisplay:10.37,2013-03-14 22:44:00,
2013-03-14 18:49:00,26.3,12.3,29.75,North,0,0.0,0.0,55,0.00,OVC,,0.00,0.0,WeatherDisplay:10.37,2013-03-14 22:49:00,
2013-03-14 18:54:00,26.2,12.6,29.76,North,0,0.0,0.0,56,0.00,OVC,,0.00,0.0,WeatherDisplay:10.37,2013-03-14 22:54:00,
2013-03-14 18:59:00,26.1,12.1,29.76,North,0,0.0,0.0,55,0.00,OVC,,0.00,0.0,WeatherDisplay:10.37,2013-03-14 22:59:00,
2013-03-14 19:04:00,26.1,12.1,29.76,North,0,0.0,0.0,55,0.00,CLR,,0.00,0.0,WeatherDisplay:10.37,2013-03-14 23:04:00,
2013-03-14 19:09:00,26.1,12.5,29.76,North,0,0.0,0.0,56,0.00,CLR,,0.00,0.0,WeatherDisplay:10.37,2013-03-14 23:09:00,
2013-03-14 19:14:00,26.0,12.0,29.76,North,0,0.0,0.0,55,0.00,CLR,,0.00,0.0,WeatherDisplay:10.37,2013-03-14 23:14:00,
2013-03-14 19:19:00,26.0,12.0,29.77,North,0,0.0,0.0,55,0.00,CLR,,0.00,0.0,WeatherDisplay:10.37,2013-03-14 23:19:00,
2013-03-14 19:24:00,26.0,12.4,29.77,North,0,0.0,0.0,56,0.00,CLR,,0.00,0.0,WeatherDisplay:10.37,2013-03-14 23:24:00,
2013-03-14 19:29:00,25.9,11.9,29.76,North,0,0.0,0.0,55,0.00,CLR,,0.00,0.0,WeatherDisplay:10.37,2013-03-14 23:29:00,
2013-03-14 19:34:00,25.9,11.5,29.77,North,0,0.0,0.0,54,0.00,CLR,,0.00,0.0,WeatherDisplay:10.37,2013-03-14 23:34:00,
2013-03-14 19:39:00,25.8,11.0,29.77,North,0,0.0,0.0,53,0.00,CLR,,0.00,0.0,WeatherDisplay:10.37,2013-03-14 23:39:00,
2013-03-14 19:44:00,25.8,11.0,29.77,North,0,0.0,0.0,53,0.00,CLR,,0.00,0.0,WeatherDisplay:10.37,2013-03-14 23:44:00,
2013-03-14 19:49:00,25.7,11.3,29.78,North,0,0.0,0.0,54,0.00,CLR,,0.00,0.0,WeatherDisplay:10.37,2013-03-14 23:49:00,
2013-03-14 19:54:00,25.7,11.3,29.78,North,0,0.0,0.0,54,0.00,CLR,,0.00,0.0,WeatherDisplay:10.37,2013-03-14 23:54:00,
2013-03-14 19:59:00,25.6,10.8,29.78,North,0,0.0,0.0,53,0.00,CLR,,0.00,0.0,WeatherDisplay:10.37,2013-03-14 23:59:00,
2013-03-14 20:04:00,25.5,10.7,29.78,North,0,0.0,0.0,53,0.00,CLR,,0.00,0.0,WeatherDisplay:10.37,2013-03-15 00:04:00,
2013-03-14 20:09:00,25.5,10.7,29.79,North,0,0.0,0.0,53,0.00,CLR,,0.00,0.0,WeatherDisplay:10.37,2013-03-15 00:09:00,
2013-03-14 20:14:00,25.4,11.0,29.79,North,0,0.0,0.0,54,0.00,CLR,,0.00,0.0,WeatherDisplay:10.37,2013-03-15 00:14:00,
2013-03-14 20:19:00,25.3,11.0,29.79,North,0,0.0,0.0,54,0.00,CLR,,0.00,0.0,WeatherDisplay:10.37,2013-03-15 00:19:00,
2013-03-14 20:24:00,25.2,10.4,29.79,North,0,0.0,0.0,53,0.00,CLR,,0.00,0.0,WeatherDisplay:10.37,2013-03-15 00:24:00,
2013-03-14 20:29:00,25.1,9.9,29.80,North,0,0.0,0.0,52,0.00,CLR,,0.00,0.0,WeatherDisplay:10.37,2013-03-15 00:29:00,
2013-03-14 20:34:00,25.0,9.8,29.79,North,0,0.0,0.0,52,0.00,CLR,,0.00,0.0,WeatherDisplay:10.37,2013-03-15 00:34:00,
2013-03-14 20:39:00,24.9,9.7,29.80,North,0,0.0,0.0,52,0.00,CLR,,0.00,0.0,WeatherDisplay:10.37,2013-03-15 00:39:00,
2013-03-14 20:44:00,24.8,9.6,29.80,North,0,0.0,0.0,52,0.00,CLR,,0.00,0.0,WeatherDisplay:10.37,2013-03-15 00:44:00,
2013-03-14 20:49:00,24.7,10.0,29.80,North,0,0.0,0.0,53,0.00,CLR,,0.00,0.0,WeatherDisplay:10.37,2013-03-15 00:49:00,
2013-03-14 20:54:00,24.6,10.3,29.80,North,0,0.0,0.0,54,0.00,CLR,,0.00,0.0,WeatherDisplay:10.37,2013-03-15 00:54:00,
2013-03-14 20:59:00,24.5,9.8,29.80,North,0,0.0,0.0,53,0.00,CLR,,0.00,0.0,WeatherDisplay:10.37,2013-03-15 00:59:00,
2013-03-14 21:04:00,24.4,10.5,29.80,North,0,0.0,0.0,55,0.00,CLR,,0.00,0.0,WeatherDisplay:10.37,2013-03-15 01:04:00,
2013-03-14 21:09:00,24.3,10.4,29.80,North,0,0.0,0.0,55,0.00,CLR,,0.00,0.0,WeatherDisplay:10.37,2013-03-15 01:09:00,
2013-03-14 21:14:00,24.2,10.3,29.81,North,0,0.0,0.0,55,0.00,CLR,,0.00,0.0,WeatherDisplay:10.37,2013-03-15 01:14:00,
2013-03-14 21:19:00,24.1,10.6,29.80,North,0,0.0,0.0,56,0.00,CLR,,0.00,0.0,WeatherDisplay:10.37,2013-03-15 01:19:00,
2013-03-14 21:24:00,24.0,10.6,29.81,North,0,0.0,0.0,56,0.00,CLR,,0.00,0.0,WeatherDisplay:10.37,2013-03-15 01:24:00,
2013-03-14 21:29:00,23.9,10.1,29.81,North,0,0.0,0.0,55,0.00,CLR,,0.00,0.0,WeatherDisplay:10.37,2013-03-15 01:29:00,
2013-03-14 21:34:00,23.8,9.6,29.81,North,0,0.0,0.0,54,0.00,CLR,,0.00,0.0,WeatherDisplay:10.37,2013-03-15 01:34:00,
2013-03-14 21:39:00,23.7,9.9,29.81,North,0,0.0,0.0,55,0.00,CLR,,0.00,0.0,WeatherDisplay:10.37,2013-03-15 01:39:00,
2013-03-14 21:44:00,23.6,9.8,29.81,North,0,0.0,0.0,55,0.00,CLR,,0.00,0.0,WeatherDisplay:10.37,2013-03-15 01:44:00,
2013-03-14 21:49:00,23.5,9.7,29.81,North,0,0.0,0.0,55,0.00,CLR,,0.00,0.0,WeatherDisplay:10.37,2013-03-15 01:49:00,
2013-03-14 21:54:00,23.4,9.6,29.81,North,0,0.0,0.0,55,0.00,CLR,,0.00,0.0,WeatherDisplay:10.37,2013-03-15 01:54:00,
2013-03-14 21:59:00,23.3,9.5,29.81,North,0,0.0,0.0,55,0.00,CLR,,0.00,0.0,WeatherDisplay:10.37,2013-03-15 01:59:00,
2013-03-14 22:04:00,23.2,9.8,29.81,North,0,0.0,0.0,56,0.00,CLR,,0.00,0.0,WeatherDisplay:10.37,2013-03-15 02:04:00,
2013-03-14 22:09:00,23.1,10.1,29.82,North,0,0.0,0.0,57,0.00,CLR,,0.00,0.0,WeatherDisplay:10.37,2013-03-15 02:09:00,
2013-03-14 22:14:00,23.0,10.0,29.82,North,0,0.0,0.0,57,0.00,CLR,,0.00,0.0,WeatherDisplay:10.37,2013-03-15 02:14:00,
2013-03-14 22:19:00,22.9,9.9,29.82,North,0,0.0,0.0,57,0.00,CLR,,0.00,0.0,WeatherDisplay:10.37,2013-03-15 02:19:00,
2013-03-14 22:24:00,22.8,10.2,29.81,North,0,0.0,0.0,58,0.00,CLR,,0.00,0.0,WeatherDisplay:10.37,2013-03-15 02:24:00,
2013-03-14 22:29:00,22.8,10.2,29.81,North,0,0.0,0.0,58,0.00,CLR,,0.00,0.0,WeatherDisplay:10.37,2013-03-15 02:29:00,
2013-03-14 22:34:00,22.7,10.5,29.82,North,0,0.0,0.0,59,0.00,CLR,,0.00,0.0,WeatherDisplay:10.37,2013-03-15 02:34:00,
2013-03-14 22:39:00,22.7,10.5,29.82,North,0,0.0,0.0,59,0.00,CLR,,0.00,0.0,WeatherDisplay:10.37,2013-03-15 02:39:00,
2013-03-14 22:44:00,22.5,10.3,29.81,North,0,0.0,0.0,59,0.00,CLR,,0.00,0.0,WeatherDisplay:10.37,2013-03-15 02:44:00,
2013-03-14 22:49:00,22.5,10.3,29.81,North,0,0.0,0.0,59,0.00,CLR,,0.00,0.0,WeatherDisplay:10.37,2013-03-15 02:49:00,
2013-03-14 22:54:00,22.4,10.2,29.81,North,0,0.0,0.0,59,0.00,CLR,,0.00,0.0,WeatherDisplay:10.37,2013-03-15 02:54:00,
2013-03-14 22:59:00,22.4,10.2,29.81,North,0,0.0,0.0,59,0.00,CLR,,0.00,0.0,WeatherDisplay:10.37,2013-03-15 02:59:00,
2013-03-14 23:04:00,22.3,10.1,29.81,North,0,0.0,0.0,59,0.00,CLR,,0.00,0.0,WeatherDisplay:10.37,2013-03-15 03:04:00,
2013-03-14 23:09:00,22.3,10.5,29.81,North,0,0.0,0.0,60,0.00,CLR,,0.00,0.0,WeatherDisplay:10.37,2013-03-15 03:09:00,
2013-03-14 23:14:00,22.2,10.4,29.81,North,0,0.0,0.0,60,0.00,CLR,,0.00,0.0,WeatherDisplay:10.37,2013-03-15 03:14:00,
2013-03-14 23:19:00,22.2,10.8,29.81,North,0,0.0,0.0,61,0.00,CLR,,0.00,0.0,WeatherDisplay:10.37,2013-03-15 03:19:00,
2013-03-14 23:24:00,22.1,11.1,29.82,North,0,0.0,0.0,62,0.00,CLR,,0.00,0.0,WeatherDisplay:10.37,2013-03-15 03:24:00,
2013-03-14 23:29:00,22.1,11.1,29.82,North,0,0.0,0.0,62,0.00,CLR,,0.00,0.0,WeatherDisplay:10.37,2013-03-15 03:29:00,
2013-03-14 23:34:00,22.0,11.0,29.82,North,0,0.0,0.0,62,0.00,CLR,,0.00,0.0,WeatherDisplay:10.37,2013-03-15 03:34:00,
2013-03-14 23:39:00,22.0,11.0,29.82,North,0,0.0,0.0,62,0.00,CLR,,0.00,0.0,WeatherDisplay:10.37,2013-03-15 03:39:00,
2013-03-14 23:44:00,22.0,11.0,29.82,North,0,0.0,0.0,62,0.00,CLR,,0.00,0.0,WeatherDisplay:10.37,2013-03-15 03:44:00,
2013-03-14 23:49:00,21.9,11.2,29.82,North,0,0.0,0.0,63,0.00,CLR,,0.00,0.0,WeatherDisplay:10.37,2013-03-15 03:49:00,
2013-03-14 23:54:00,21.9,11.2,29.82,North,0,0.0,0.0,63,0.00,CLR,,0.00,0.0,WeatherDisplay:10.37,2013-03-15 03:54:00,
2013-03-14 23:59:00,21.8,11.1,29.81,North,0,0.0,0.0,63,0.00,CLR,,0.00,0.0,WeatherDisplay:10.37,2013-03-15 03:59:00,